| time (UTC) | temp F | wind direction | speed MPH | gust MPH | rain 1hr in | rain 24hr in | rain mn in | humidity % | barometer mb |
| 20260506220026 | 101 | 162 | 13.0 | 21.0 | 0.00 | 0.00 | 0.00 | 37 | 1007.4 |
| 20260506214525 | 102 | 203 | 13.0 | 21.0 | 0.00 | 0.00 | 0.00 | 39 | 1007.4 |
| 20260506213024 | 102 | 119 | 14.0 | 23.0 | 0.00 | 0.00 | 0.00 | 38 | 1007.6 |
| 20260506211522 | 102 | 140 | 12.0 | 21.0 | 0.00 | 0.00 | 0.00 | 38 | 1007.7 |
| 20260506210023 | 102 | 126 | 12.0 | 21.0 | 0.00 | 0.00 | 0.00 | 39 | 1007.7 |
| 20260506204520 | 102 | 158 | 11.0 | 21.0 | 0.00 | 0.00 | 0.00 | 40 | 1007.7 |
| 20260506203020 | 102 | 137 | 16.0 | 23.0 | 0.00 | 0.00 | 0.00 | 39 | 1008.0 |
| 20260506201521 | 102 | 143 | 15.0 | 26.0 | 0.00 | 0.00 | 0.00 | 38 | 1008.3 |
| 20260506200018 | 102 | 133 | 11.0 | 20.0 | 0.00 | 0.00 | 0.00 | 39 | 1008.3 |
| 20260506194513 | 102 | 159 | 15.0 | 23.0 | 0.00 | 0.00 | 0.00 | 38 | 1008.7 |
| 20260506193010 | 102 | 140 | 13.0 | 22.0 | 0.00 | 0.00 | 0.00 | 39 | 1008.7 |
| 20260506191510 | 101 | 140 | 12.0 | 22.0 | 0.00 | 0.00 | 0.00 | 41 | 1009.2 |
| 20260506190003 | 100 | 146 | 11.0 | 25.0 | 0.00 | 0.00 | 0.00 | 41 | 1009.5 |
| 20260506184602 | 101 | 178 | 10.0 | 22.0 | 0.00 | 0.00 | 0.00 | 41 | 1009.7 |
| 20260506183105 | 99 | 144 | 14.0 | 24.0 | 0.00 | 0.00 | 0.00 | 41 | 1010.1 |
| 20260506181556 | 100 | 140 | 13.0 | 22.0 | 0.00 | 0.00 | 0.00 | 43 | 1010.3 |
| 20260506180048 | 99 | 146 | 11.0 | 21.0 | 0.00 | 0.00 | 0.00 | 43 | 1010.5 |
| 20260506173051 | 97 | 136 | 11.0 | 19.0 | 0.00 | 0.00 | 0.00 | 47 | 1010.9 |
| 20260506171538 | 97 | 155 | 10.0 | 20.0 | 0.00 | 0.00 | 0.00 | 48 | 1011.1 |
| 20260506170035 | 96 | 120 | 13.0 | 22.0 | 0.00 | 0.00 | 0.00 | 50 | 1011.2 |
| 20260506164531 | 96 | 126 | 13.0 | 25.0 | 0.00 | 0.00 | 0.00 | 50 | 1011.4 |
| 20260506163044 | 94 | 130 | 15.0 | 25.0 | 0.00 | 0.00 | 0.00 | 52 | 1011.5 |
| 20260506161526 | 93 | 128 | 16.0 | 26.0 | 0.00 | 0.00 | 0.00 | 54 | 1011.7 |
| 20260506160019 | 92 | 144 | 18.0 | 24.0 | 0.00 | 0.00 | 0.00 | 55 | 1011.9 |
| 20260506154528 | 91 | 140 | 14.0 | 25.0 | 0.00 | 0.00 | 0.00 | 58 | 1012.0 |
| 20260506153011 | 91 | 195 | 15.0 | 26.0 | 0.00 | 0.00 | 0.00 | 60 | 1012.1 |
| 20260506151511 | 89 | 159 | 13.0 | 24.0 | 0.00 | 0.00 | 0.00 | 65 | 1012.1 |
| 20260506150006 | 88 | 140 | 15.0 | 25.0 | 0.00 | 0.00 | 0.00 | 67 | 1012.2 |
| 20260506144559 | 87 | 151 | 14.0 | 27.0 | 0.00 | 0.00 | 0.00 | 70 | 1012.3 |
| 20260506143055 | 86 | 117 | 18.0 | 27.0 | 0.00 | 0.00 | 0.00 | 72 | 1012.2 |
| 20260506141551 | 85 | 121 | 16.0 | 24.0 | 0.00 | 0.00 | 0.00 | 74 | 1012.2 |
| 20260506140047 | 84 | 146 | 16.0 | 28.0 | 0.00 | 0.00 | 0.00 | 77 | 1012.3 |
| 20260506134544 | 83 | 141 | 18.0 | 25.0 | 0.00 | 0.00 | 0.00 | 78 | 1012.3 |
| 20260506133046 | 82 | 124 | 15.0 | 24.0 | 0.00 | 0.00 | 0.00 | 81 | 1012.3 |
| 20260506131539 | 80 | 133 | 18.0 | 24.0 | 0.00 | 0.00 | 0.00 | 83 | 1012.2 |
| 20260506130038 | 79 | 138 | 12.0 | 18.0 | 0.00 | 0.00 | 0.00 | 86 | 1012.4 |
| 20260506124531 | 78 | 131 | 13.0 | 18.0 | 0.00 | 0.00 | 0.00 | 87 | 1012.2 |
| 20260506123027 | 77 | 145 | 9.0 | 15.0 | 0.00 | 0.00 | 0.00 | 88 | 1012.2 |
| 20260506121522 | 77 | 140 | 9.0 | 15.0 | 0.00 | 0.00 | 0.00 | 88 | 1012.1 |
| 20260506120019 | 76 | 136 | 10.0 | 14.0 | 0.00 | 0.00 | 0.00 | 88 | 1012.1 |
| 20260506114515 | 76 | 107 | 10.0 | 14.0 | 0.00 | 0.00 | 0.00 | 88 | 1011.9 |
| 20260506111515 | 76 | 130 | 8.0 | 15.0 | 0.00 | 0.00 | 0.00 | 88 | 1011.7 |
| 20260506110010 | 76 | 136 | 9.0 | 15.0 | 0.00 | 0.00 | 0.00 | 87 | 1011.7 |
| 20260506104505 | 77 | 130 | 10.0 | 16.0 | 0.00 | 0.00 | 0.00 | 87 | 1011.7 |
| 20260506103004 | 77 | 147 | 10.0 | 17.0 | 0.00 | 0.00 | 0.00 | 87 | 1011.4 |
| 20260506101502 | 77 | 111 | 9.0 | 15.0 | 0.00 | 0.00 | 0.00 | 86 | 1011.4 |
| 20260506100100 | 77 | 117 | 10.0 | 14.0 | 0.00 | 0.00 | 0.00 | 86 | 1011.3 |
| 20260506094601 | 77 | 121 | 7.0 | 14.0 | 0.00 | 0.00 | 0.00 | 85 | 1011.4 |
| 20260506093101 | 78 | 128 | 9.0 | 13.0 | 0.00 | 0.00 | 0.00 | 84 | 1011.2 |
| 20260506091556 | 78 | 112 | 7.0 | 13.0 | 0.00 | 0.00 | 0.00 | 84 | 1011.3 |
| 20260506090105 | 78 | 129 | 8.0 | 12.0 | 0.00 | 0.00 | 0.00 | 84 | 1011.3 |
| 20260506084606 | 79 | 104 | 9.0 | 13.0 | 0.00 | 0.00 | 0.00 | 83 | 1011.2 |
| 20260506083053 | 79 | 132 | 8.0 | 14.0 | 0.00 | 0.00 | 0.00 | 82 | 1011.2 |
| 20260506081549 | 79 | 128 | 10.0 | 15.0 | 0.00 | 0.00 | 0.00 | 82 | 1011.4 |
| 20260506073045 | 80 | 140 | 9.0 | 13.0 | 0.00 | 0.00 | 0.00 | 80 | 1011.4 |
| 20260506071542 | 80 | 143 | 12.0 | 17.0 | 0.00 | 0.00 | 0.00 | 79 | 1011.3 |
| 20260506070140 | 81 | 140 | 9.0 | 14.0 | 0.00 | 0.00 | 0.00 | 79 | 1011.4 |
| 20260506061534 | 82 | 132 | 13.0 | 19.0 | 0.00 | 0.00 | 0.00 | 76 | 1011.6 |
| 20260506044525 | 85 | 107 | 15.0 | 23.0 | 0.00 | 0.00 | 0.00 | 70 | 1011.8 |
| 20260506043024 | 85 | 126 | 12.0 | 20.0 | 0.00 | 0.00 | 0.00 | 69 | 1011.8 |
| 20260506041623 | 86 | 83 | 15.0 | 26.0 | 0.00 | 0.00 | 0.00 | 68 | 1011.6 |
| 20260506040022 | 87 | 140 | 16.0 | 25.0 | 0.00 | 0.00 | 0.00 | 67 | 1011.4 |
| 20260506034533 | 88 | 113 | 16.0 | 27.0 | 0.00 | 0.00 | 0.00 | 65 | 1011.0 |
| 20260506033021 | 88 | 79 | 13.0 | 21.0 | 0.00 | 0.00 | 0.00 | 64 | 1010.9 |
| 20260506031522 | 89 | 121 | 13.0 | 26.0 | 0.00 | 0.00 | 0.00 | 63 | 1010.5 |
| 20260506030022 | 90 | 119 | 18.0 | 26.0 | 0.00 | 0.00 | 0.00 | 62 | 1010.3 |
| 20260506024519 | 91 | 145 | 17.0 | 27.0 | 0.00 | 0.00 | 0.00 | 61 | 1010.1 |
| 20260506023019 | 92 | 118 | 13.0 | 24.0 | 0.00 | 0.00 | 0.00 | 60 | 1010.0 |
| 20260506021518 | 92 | 134 | 17.0 | 28.0 | 0.00 | 0.00 | 0.00 | 58 | 1009.7 |
| 20260506020017 | 93 | 131 | 10.0 | 22.0 | 0.00 | 0.00 | 0.00 | 57 | 1009.3 |
| 20260506014519 | 94 | 125 | 11.0 | 17.0 | 0.00 | 0.00 | 0.00 | 56 | 1008.9 |
| 20260506013033 | 94 | 112 | 10.0 | 16.0 | 0.00 | 0.00 | 0.00 | 54 | 1008.7 |
| 20260506011523 | 95 | 156 | 10.0 | 15.0 | 0.00 | 0.00 | 0.00 | 53 | 1008.7 |
| 20260506010016 | 96 | 110 | 9.0 | 13.0 | 0.00 | 0.00 | 0.00 | 52 | 1008.4 |
| 20260506004516 | 96 | 152 | 9.0 | 13.0 | 0.00 | 0.00 | 0.00 | 50 | 1008.4 |
| 20260506003013 | 96 | 117 | 11.0 | 16.0 | 0.00 | 0.00 | 0.00 | 50 | 1008.2 |
| 20260506001513 | 97 | 127 | 12.0 | 18.0 | 0.00 | 0.00 | 0.00 | 50 | 1008.0 |
| 20260506000012 | 98 | 139 | 11.0 | 17.0 | 0.00 | 0.00 | 0.00 | 49 | 1007.9 |
| 20260505234512 | 98 | 126 | 9.0 | 14.0 | 0.00 | 0.00 | 0.00 | 47 | 1007.8 |
| 20260505233018 | 98 | 135 | 13.0 | 19.0 | 0.00 | 0.00 | 0.00 | 47 | 1007.8 |
| 20260505231513 | 99 | 123 | 9.0 | 16.0 | 0.00 | 0.00 | 0.00 | 46 | 1007.7 |
| 20260505230011 | 101 | 128 | 8.0 | 16.0 | 0.00 | 0.00 | 0.00 | 45 | 1007.5 |
| 20260505224512 | 100 | 148 | 8.0 | 17.0 | 0.00 | 0.00 | 0.00 | 44 | 1007.5 |
| 20260505223009 | 101 | 160 | 7.0 | 18.0 | 0.00 | 0.00 | 0.00 | 44 | 1007.5 |
| 20260505221508 | 100 | 128 | 7.0 | 15.0 | 0.00 | 0.00 | 0.00 | 44 | 1007.4 |